Year,Month,Day,Hour,Minute,Value (Times are PST for temperature in C)
2010,04,08,00,00,7.60
2010,04,08,00,01,7.50
2010,04,08,00,02,7.50
2010,04,08,00,03,7.50
2010,04,08,00,04,7.50
2010,04,08,00,05,7.40
2010,04,08,00,06,7.40
2010,04,08,00,07,7.40
2010,04,08,00,08,7.40
2010,04,08,00,09,7.40
2010,04,08,00,10,7.40
2010,04,08,00,11,7.40
2010,04,08,00,12,7.40
2010,04,08,00,13,7.30
2010,04,08,00,14,7.30
2010,04,08,00,15,7.30
2010,04,08,00,16,7.30
2010,04,08,00,17,7.20
2010,04,08,00,18,7.20
2010,04,08,00,19,7.10
2010,04,08,00,20,7.10
2010,04,08,00,21,6.90
2010,04,08,00,22,6.80
2010,04,08,00,23,6.50
2010,04,08,00,24,6.30
2010,04,08,00,25,6.00
2010,04,08,00,26,5.90
2010,04,08,00,27,5.70
2010,04,08,00,28,5.70
2010,04,08,00,29,5.70
2010,04,08,00,30,5.60
2010,04,08,00,31,5.50
2010,04,08,00,32,5.50
2010,04,08,00,33,5.50
2010,04,08,00,34,5.40
2010,04,08,00,35,5.40
2010,04,08,00,36,5.30
2010,04,08,00,37,5.30
2010,04,08,00,38,5.20
2010,04,08,00,39,5.20
2010,04,08,00,40,5.10
2010,04,08,00,41,5.10
2010,04,08,00,42,5.10
2010,04,08,00,43,5.10
2010,04,08,00,44,5.00
2010,04,08,00,45,4.90
2010,04,08,00,46,4.90
2010,04,08,00,47,4.90
2010,04,08,00,48,4.90
2010,04,08,00,49,4.90
2010,04,08,00,50,4.90
2010,04,08,00,51,4.80
2010,04,08,00,52,4.80
2010,04,08,00,53,4.80
2010,04,08,00,54,4.80
2010,04,08,00,55,4.70
2010,04,08,00,56,4.70
2010,04,08,00,57,4.70
2010,04,08,00,58,4.70
2010,04,08,00,59,4.60
2010,04,08,01,00,4.60
2010,04,08,01,01,4.60
2010,04,08,01,02,4.60
2010,04,08,01,03,4.60
2010,04,08,01,04,4.60
2010,04,08,01,05,4.60
2010,04,08,01,06,4.60
2010,04,08,01,07,4.60
2010,04,08,01,08,4.60
2010,04,08,01,09,4.60
2010,04,08,01,10,4.60
2010,04,08,01,11,4.60
2010,04,08,01,12,4.60
2010,04,08,01,13,4.60
2010,04,08,01,14,4.60
2010,04,08,01,15,4.60
2010,04,08,01,16,4.60
2010,04,08,01,17,4.60
2010,04,08,01,18,4.60
2010,04,08,01,19,4.60
2010,04,08,01,20,4.70
2010,04,08,01,21,4.70
2010,04,08,01,22,4.70
2010,04,08,01,23,4.70
2010,04,08,01,24,4.80
2010,04,08,01,25,4.80
2010,04,08,01,26,4.80
2010,04,08,01,27,4.90
2010,04,08,01,28,4.90
2010,04,08,01,29,4.90
2010,04,08,01,30,4.90
2010,04,08,01,31,4.90
2010,04,08,01,32,4.90
2010,04,08,01,33,4.90
2010,04,08,01,34,4.90
2010,04,08,01,35,4.90
2010,04,08,01,36,4.90
2010,04,08,01,37,4.90
2010,04,08,01,38,4.90
2010,04,08,01,39,4.80
2010,04,08,01,40,4.80
2010,04,08,01,41,4.80
2010,04,08,01,42,4.70
2010,04,08,01,43,4.70
2010,04,08,01,44,4.80
2010,04,08,01,45,4.80
2010,04,08,01,46,4.80
2010,04,08,01,47,4.80
2010,04,08,01,48,4.80
2010,04,08,01,49,4.80
2010,04,08,01,50,4.80
2010,04,08,01,51,4.80
2010,04,08,01,52,4.80
2010,04,08,01,53,4.80
2010,04,08,01,54,4.80
2010,04,08,01,55,4.80
2010,04,08,01,56,4.90
2010,04,08,01,57,4.90
2010,04,08,01,58,4.90
2010,04,08,01,59,4.90
2010,04,08,02,00,4.90
2010,04,08,02,01,4.90
2010,04,08,02,02,4.90
2010,04,08,02,03,4.90
2010,04,08,02,04,4.90
2010,04,08,02,05,4.90
2010,04,08,02,06,4.90
2010,04,08,02,07,4.90
2010,04,08,02,08,4.90
2010,04,08,02,09,4.90
2010,04,08,02,10,4.90
2010,04,08,02,11,4.90
2010,04,08,02,12,4.90
2010,04,08,02,13,4.90
2010,04,08,02,14,4.90
2010,04,08,02,15,4.90
2010,04,08,02,16,4.90
2010,04,08,02,17,4.90
2010,04,08,02,18,4.90
2010,04,08,02,19,4.90
2010,04,08,02,20,4.90
2010,04,08,02,21,4.90
2010,04,08,02,22,4.90
2010,04,08,02,23,4.90
2010,04,08,02,24,4.90
2010,04,08,02,25,4.90
2010,04,08,02,26,4.90
2010,04,08,02,27,4.90
2010,04,08,02,28,4.90
2010,04,08,02,29,4.90
2010,04,08,02,30,4.90
2010,04,08,02,31,4.90
2010,04,08,02,32,4.90
2010,04,08,02,33,4.90
2010,04,08,02,34,4.90
2010,04,08,02,35,4.90
2010,04,08,02,36,4.90
2010,04,08,02,37,5.00
2010,04,08,02,38,5.10
2010,04,08,02,39,5.10
2010,04,08,02,40,5.10
2010,04,08,02,41,5.20
2010,04,08,02,42,5.20
2010,04,08,02,43,5.30
2010,04,08,02,44,5.30
2010,04,08,02,45,5.40
2010,04,08,02,46,5.40
2010,04,08,02,47,5.40
2010,04,08,02,48,5.50
2010,04,08,02,49,5.50
2010,04,08,02,50,5.50
2010,04,08,02,51,5.50
2010,04,08,02,52,5.50
2010,04,08,02,53,5.60
2010,04,08,02,54,5.60
2010,04,08,02,55,5.60
2010,04,08,02,56,5.70
2010,04,08,02,57,5.70
2010,04,08,02,58,5.70
2010,04,08,02,59,5.70
2010,04,08,03,00,5.70
2010,04,08,03,01,5.70
2010,04,08,03,02,5.70
2010,04,08,03,03,5.70
2010,04,08,03,04,5.70
2010,04,08,03,05,5.70
2010,04,08,03,06,5.70
2010,04,08,03,07,5.70
2010,04,08,03,08,5.80
2010,04,08,03,09,5.80
2010,04,08,03,10,5.80
2010,04,08,03,11,5.80
2010,04,08,03,12,5.80
2010,04,08,03,13,5.80
2010,04,08,03,14,5.80
2010,04,08,03,15,5.80
2010,04,08,03,16,5.80
2010,04,08,03,17,5.80
2010,04,08,03,18,5.80
2010,04,08,03,19,5.80
2010,04,08,03,20,5.80
2010,04,08,03,21,5.80
2010,04,08,03,22,5.80
2010,04,08,03,23,5.80
2010,04,08,03,24,5.80
2010,04,08,03,25,5.80
2010,04,08,03,26,5.80
2010,04,08,03,27,5.80
2010,04,08,03,28,5.70
2010,04,08,03,29,5.70
2010,04,08,03,30,5.70
2010,04,08,03,31,5.70
2010,04,08,03,32,5.70
2010,04,08,03,33,5.70
2010,04,08,03,34,5.70
2010,04,08,03,35,5.80
2010,04,08,03,36,5.80
2010,04,08,03,37,5.80
2010,04,08,03,38,5.80
2010,04,08,03,39,5.80
2010,04,08,03,40,5.80
2010,04,08,03,41,5.80
2010,04,08,03,42,5.80
2010,04,08,03,43,5.80
2010,04,08,03,44,5.80
2010,04,08,03,45,5.80
2010,04,08,03,46,5.90
2010,04,08,03,47,5.90
2010,04,08,03,48,5.90
2010,04,08,03,49,5.80
2010,04,08,03,50,5.80
2010,04,08,03,51,5.80
2010,04,08,03,52,5.70
2010,04,08,03,53,5.70
2010,04,08,03,54,5.70
2010,04,08,03,55,5.70
2010,04,08,03,56,5.70
2010,04,08,03,57,5.70
2010,04,08,03,58,5.70
2010,04,08,03,59,5.70
2010,04,08,04,00,5.60
2010,04,08,04,01,5.60
2010,04,08,04,02,5.60
2010,04,08,04,03,5.60
2010,04,08,04,04,5.60
2010,04,08,04,05,5.60
2010,04,08,04,06,5.60
2010,04,08,04,07,5.50
2010,04,08,04,08,5.60
2010,04,08,04,09,5.60
2010,04,08,04,10,5.50
2010,04,08,04,11,5.50
2010,04,08,04,12,5.50
2010,04,08,04,13,5.50
2010,04,08,04,14,5.50
2010,04,08,04,15,5.50
2010,04,08,04,16,5.50
2010,04,08,04,17,5.60
2010,04,08,04,18,5.60
2010,04,08,04,19,5.60
2010,04,08,04,20,5.60
2010,04,08,04,21,5.60
2010,04,08,04,22,5.60
2010,04,08,04,23,5.60
2010,04,08,04,24,5.60
2010,04,08,04,25,5.60
2010,04,08,04,26,5.60
2010,04,08,04,27,5.60
2010,04,08,04,28,5.60
2010,04,08,04,29,5.60
2010,04,08,04,30,5.60
2010,04,08,04,31,5.60
2010,04,08,04,32,5.60
2010,04,08,04,33,5.70
2010,04,08,04,34,5.60
2010,04,08,04,35,5.60
2010,04,08,04,36,5.60
2010,04,08,04,37,5.60
2010,04,08,04,38,5.60
2010,04,08,04,39,5.60
2010,04,08,04,40,5.50
2010,04,08,04,41,5.50
2010,04,08,04,42,5.50
2010,04,08,04,43,5.50
2010,04,08,04,44,5.50
2010,04,08,04,45,5.50
2010,04,08,04,46,5.50
2010,04,08,04,47,5.50
2010,04,08,04,48,5.60
2010,04,08,04,49,5.60
2010,04,08,04,50,5.60
2010,04,08,04,51,5.60
2010,04,08,04,52,5.60
2010,04,08,04,53,5.50
2010,04,08,04,54,5.50
2010,04,08,04,55,5.50
2010,04,08,04,56,5.50
2010,04,08,04,57,5.50
2010,04,08,04,58,5.50
2010,04,08,04,59,5.50
2010,04,08,05,00,5.40
2010,04,08,05,01,5.40
2010,04,08,05,02,5.40
2010,04,08,05,03,5.40
2010,04,08,05,04,5.40
2010,04,08,05,05,5.40
2010,04,08,05,06,5.40
2010,04,08,05,07,5.40
2010,04,08,05,08,5.40
2010,04,08,05,09,5.40
2010,04,08,05,10,5.40
2010,04,08,05,11,5.40
2010,04,08,05,12,5.40
2010,04,08,05,13,5.30
2010,04,08,05,14,5.30
2010,04,08,05,15,5.30
2010,04,08,05,16,5.30
2010,04,08,05,17,5.30
2010,04,08,05,18,5.30
2010,04,08,05,19,5.30
2010,04,08,05,20,5.30
2010,04,08,05,21,5.30
2010,04,08,05,22,5.30
2010,04,08,05,23,5.30
2010,04,08,05,24,5.30
2010,04,08,05,25,5.30
2010,04,08,05,26,5.30
2010,04,08,05,27,5.30
2010,04,08,05,28,5.30
2010,04,08,05,29,5.30
2010,04,08,05,30,5.20
2010,04,08,05,31,5.20
2010,04,08,05,32,5.10
2010,04,08,05,33,5.10
2010,04,08,05,34,5.10
2010,04,08,05,35,5.10
2010,04,08,05,36,5.10
2010,04,08,05,37,5.10
2010,04,08,05,38,5.10
2010,04,08,05,39,5.10
2010,04,08,05,40,5.10
2010,04,08,05,41,5.10
2010,04,08,05,42,5.10
2010,04,08,05,43,5.10
2010,04,08,05,44,5.00
2010,04,08,05,45,4.90
2010,04,08,05,46,4.90
2010,04,08,05,47,4.90
2010,04,08,05,48,4.90
2010,04,08,05,49,4.90
2010,04,08,05,50,4.90
2010,04,08,05,51,4.90
2010,04,08,05,52,5.00
2010,04,08,05,53,4.90
2010,04,08,05,54,4.90
2010,04,08,05,55,4.90
2010,04,08,05,56,4.90
2010,04,08,05,57,4.90
2010,04,08,05,58,4.80
2010,04,08,05,59,4.80
2010,04,08,06,00,4.80
2010,04,08,06,01,4.80
2010,04,08,06,02,4.80
2010,04,08,06,03,4.70
2010,04,08,06,04,4.70
2010,04,08,06,05,4.70
2010,04,08,06,06,4.70
2010,04,08,06,07,4.70
2010,04,08,06,08,4.70
2010,04,08,06,09,4.70
2010,04,08,06,10,4.70
2010,04,08,06,11,4.70
2010,04,08,06,12,4.70
2010,04,08,06,13,4.70
2010,04,08,06,14,4.70
2010,04,08,06,15,4.70
2010,04,08,06,16,4.80
2010,04,08,06,17,4.80
2010,04,08,06,18,4.80
2010,04,08,06,19,4.80
2010,04,08,06,20,4.80
2010,04,08,06,21,4.70
2010,04,08,06,22,4.80
2010,04,08,06,23,4.80
2010,04,08,06,24,4.80
2010,04,08,06,25,4.80
2010,04,08,06,26,4.80
2010,04,08,06,27,4.80
2010,04,08,06,28,4.80
2010,04,08,06,29,4.80
2010,04,08,06,30,4.70
2010,04,08,06,31,4.70
2010,04,08,06,32,4.70
2010,04,08,06,33,4.70
2010,04,08,06,34,4.70
2010,04,08,06,35,4.70
2010,04,08,06,36,4.70
2010,04,08,06,37,4.70
2010,04,08,06,38,4.80
2010,04,08,06,39,4.80
2010,04,08,06,40,4.80
2010,04,08,06,41,4.80
2010,04,08,06,42,4.80
2010,04,08,06,43,4.80
2010,04,08,06,44,4.80
2010,04,08,06,45,4.80
2010,04,08,06,46,4.70
2010,04,08,06,47,4.70
2010,04,08,06,48,4.70
2010,04,08,06,49,4.70
2010,04,08,06,50,4.70
2010,04,08,06,51,4.70
2010,04,08,06,52,4.70
2010,04,08,06,53,4.70
2010,04,08,06,54,4.70
2010,04,08,06,55,4.70
2010,04,08,06,56,4.70
2010,04,08,06,57,4.70
2010,04,08,06,58,4.70
2010,04,08,06,59,4.70
2010,04,08,07,00,4.70
2010,04,08,07,01,4.70
2010,04,08,07,02,4.60
2010,04,08,07,03,4.60
2010,04,08,07,04,4.60
2010,04,08,07,05,4.60
2010,04,08,07,06,4.60
2010,04,08,07,07,4.60
2010,04,08,07,08,4.60
2010,04,08,07,09,4.60
2010,04,08,07,10,4.60
2010,04,08,07,11,4.60
2010,04,08,07,12,4.60
2010,04,08,07,13,4.60
2010,04,08,07,14,4.60
2010,04,08,07,15,4.60
2010,04,08,07,16,4.70
2010,04,08,07,17,4.70
2010,04,08,07,18,4.70
2010,04,08,07,19,4.70
2010,04,08,07,20,4.70
2010,04,08,07,21,4.80
2010,04,08,07,22,4.80
2010,04,08,07,23,4.80
2010,04,08,07,24,4.80
2010,04,08,07,25,4.80
2010,04,08,07,26,4.80
2010,04,08,07,27,4.80
2010,04,08,07,28,4.80
2010,04,08,07,29,4.80
2010,04,08,07,30,4.90
2010,04,08,07,31,4.90
2010,04,08,07,32,4.90
2010,04,08,07,33,4.90
2010,04,08,07,34,4.90
2010,04,08,07,35,4.80
2010,04,08,07,36,4.80
2010,04,08,07,37,4.80
2010,04,08,07,38,4.80
2010,04,08,07,39,4.80
2010,04,08,07,40,4.80
2010,04,08,07,41,4.80
2010,04,08,07,42,4.80
2010,04,08,07,43,4.80
2010,04,08,07,44,4.80
2010,04,08,07,45,4.80
2010,04,08,07,46,4.80
2010,04,08,07,47,4.80
2010,04,08,07,48,4.90
2010,04,08,07,49,4.90
2010,04,08,07,50,4.90
2010,04,08,07,51,4.90
2010,04,08,07,52,4.90
2010,04,08,07,53,4.90
2010,04,08,07,54,5.00
2010,04,08,07,55,5.10
2010,04,08,07,56,5.10
2010,04,08,07,57,5.10
2010,04,08,07,58,5.10
2010,04,08,07,59,5.10
2010,04,08,08,00,5.10
2010,04,08,08,01,5.10
2010,04,08,08,02,5.10
2010,04,08,08,03,5.10
2010,04,08,08,04,5.10
2010,04,08,08,05,5.10
2010,04,08,08,06,5.10
2010,04,08,08,07,5.10
2010,04,08,08,08,5.20
2010,04,08,08,09,5.20
2010,04,08,08,10,5.20
2010,04,08,08,11,5.20
2010,04,08,08,12,5.20
2010,04,08,08,13,5.30
2010,04,08,08,14,5.30
2010,04,08,08,15,5.30
2010,04,08,08,16,5.30
2010,04,08,08,17,5.30
2010,04,08,08,18,5.30
2010,04,08,08,19,5.30
2010,04,08,08,20,5.30
2010,04,08,08,21,5.30
2010,04,08,08,22,5.40
2010,04,08,08,23,5.40
2010,04,08,08,24,5.40
2010,04,08,08,25,5.40
2010,04,08,08,26,5.40
2010,04,08,08,27,5.40
2010,04,08,08,28,5.40
2010,04,08,08,29,5.40
2010,04,08,08,30,5.50
2010,04,08,08,31,5.50
2010,04,08,08,32,5.60
2010,04,08,08,33,5.60
2010,04,08,08,34,5.60
2010,04,08,08,35,5.60
2010,04,08,08,36,5.60
2010,04,08,08,37,5.60
2010,04,08,08,38,5.60
2010,04,08,08,39,5.60
2010,04,08,08,40,5.60
2010,04,08,08,41,5.60
2010,04,08,08,42,5.60
2010,04,08,08,43,5.60
2010,04,08,08,44,5.60
2010,04,08,08,45,5.60
2010,04,08,08,46,5.70
2010,04,08,08,47,5.70
2010,04,08,08,48,5.60
2010,04,08,08,49,5.60
2010,04,08,08,50,5.60
2010,04,08,08,51,5.60
2010,04,08,08,52,5.60
2010,04,08,08,53,5.70
2010,04,08,08,54,5.70
2010,04,08,08,55,5.70
2010,04,08,08,56,5.70
2010,04,08,08,57,5.70
2010,04,08,08,58,5.80
2010,04,08,08,59,5.90
2010,04,08,09,00,5.90
2010,04,08,09,01,6.00
2010,04,08,09,02,6.00
2010,04,08,09,03,6.10
2010,04,08,09,04,6.10
2010,04,08,09,05,6.20
2010,04,08,09,06,6.20
2010,04,08,09,07,6.20
2010,04,08,09,08,6.20
2010,04,08,09,09,6.20
2010,04,08,09,10,6.30
2010,04,08,09,11,6.30
2010,04,08,09,12,6.30
2010,04,08,09,13,6.30
2010,04,08,09,14,6.30
2010,04,08,09,15,6.30
2010,04,08,09,16,6.30
2010,04,08,09,17,6.30
2010,04,08,09,18,6.30
2010,04,08,09,19,6.30
2010,04,08,09,20,6.30
2010,04,08,09,21,6.30
2010,04,08,09,22,6.30
2010,04,08,09,23,6.30
2010,04,08,09,24,6.30
2010,04,08,09,25,6.40
2010,04,08,09,26,6.30
2010,04,08,09,27,6.30
2010,04,08,09,28,6.30
2010,04,08,09,29,6.30
2010,04,08,09,30,6.30
2010,04,08,09,31,6.30
2010,04,08,09,32,6.30
2010,04,08,09,33,6.30
2010,04,08,09,34,6.40
2010,04,08,09,35,6.40
2010,04,08,09,36,6.40
2010,04,08,09,37,6.40
2010,04,08,09,38,6.40
2010,04,08,09,39,6.40
2010,04,08,09,40,6.40
2010,04,08,09,41,6.40
2010,04,08,09,42,6.40
2010,04,08,09,43,6.40
2010,04,08,09,44,6.40
2010,04,08,09,45,6.40
2010,04,08,09,46,6.40
2010,04,08,09,47,6.40
2010,04,08,09,48,6.40
2010,04,08,09,49,6.40
2010,04,08,09,50,6.60
2010,04,08,09,51,6.60
2010,04,08,09,52,6.50
2010,04,08,09,53,6.40
2010,04,08,09,54,6.40
2010,04,08,09,55,6.40
2010,04,08,09,56,6.40
2010,04,08,09,57,6.40
2010,04,08,09,58,6.40
2010,04,08,09,59,6.40
2010,04,08,10,00,6.40
2010,04,08,10,01,6.40
2010,04,08,10,02,6.30
2010,04,08,10,03,6.30
2010,04,08,10,04,6.30
2010,04,08,10,05,6.30
2010,04,08,10,06,6.40
2010,04,08,10,07,6.40
2010,04,08,10,08,6.40
2010,04,08,10,09,6.40
2010,04,08,10,10,6.40
2010,04,08,10,11,6.40
2010,04,08,10,12,6.40
2010,04,08,10,13,6.40
2010,04,08,10,14,6.40
2010,04,08,10,15,6.40
2010,04,08,10,16,6.30
2010,04,08,10,17,6.30
2010,04,08,10,18,6.30
2010,04,08,10,19,6.30
2010,04,08,10,20,6.30
2010,04,08,10,21,6.40
2010,04,08,10,22,6.40
2010,04,08,10,23,6.50
2010,04,08,10,24,6.60
2010,04,08,10,25,6.60
2010,04,08,10,26,6.60
2010,04,08,10,27,6.60
2010,04,08,10,28,6.60
2010,04,08,10,29,6.70
2010,04,08,10,30,6.70
2010,04,08,10,31,6.70
2010,04,08,10,32,6.80
2010,04,08,10,33,6.80
2010,04,08,10,34,6.90
2010,04,08,10,35,7.00
2010,04,08,10,36,7.00
2010,04,08,10,37,7.10
2010,04,08,10,38,7.10
2010,04,08,10,39,7.20
2010,04,08,10,40,7.20
2010,04,08,10,41,7.20
2010,04,08,10,42,7.20
2010,04,08,10,43,7.10
2010,04,08,10,44,7.10
2010,04,08,10,45,7.10
2010,04,08,10,46,7.10
2010,04,08,10,47,7.10
2010,04,08,10,48,7.10
2010,04,08,10,49,7.10
2010,04,08,10,50,7.10
2010,04,08,10,51,7.20
2010,04,08,10,52,7.20
2010,04,08,10,53,7.20
2010,04,08,10,54,7.20
2010,04,08,10,55,7.30
2010,04,08,10,56,7.30
2010,04,08,10,57,7.30
2010,04,08,10,58,7.30
2010,04,08,10,59,7.30
2010,04,08,11,00,7.30
2010,04,08,11,01,7.40
2010,04,08,11,02,7.40
2010,04,08,11,03,7.40
2010,04,08,11,04,7.30
2010,04,08,11,05,7.30
2010,04,08,11,06,7.30
2010,04,08,11,07,7.30
2010,04,08,11,08,7.30
2010,04,08,11,09,7.40
2010,04,08,11,10,7.40
2010,04,08,11,11,7.40
2010,04,08,11,12,7.50
2010,04,08,11,13,7.50
2010,04,08,11,14,7.60
2010,04,08,11,15,7.60
2010,04,08,11,16,7.60
2010,04,08,11,17,7.70
2010,04,08,11,18,7.70
2010,04,08,11,19,7.60
2010,04,08,11,20,7.50
2010,04,08,11,21,7.30
2010,04,08,11,22,7.30
2010,04,08,11,23,7.20
2010,04,08,11,24,7.10
2010,04,08,11,25,7.00
2010,04,08,11,26,7.00
2010,04,08,11,27,7.10
2010,04,08,11,28,7.10
2010,04,08,11,29,7.10
2010,04,08,11,30,7.10
2010,04,08,11,31,7.10
2010,04,08,11,32,7.10
2010,04,08,11,33,7.00
2010,04,08,11,34,6.90
2010,04,08,11,35,6.90
2010,04,08,11,36,6.90
2010,04,08,11,37,7.00
2010,04,08,11,38,7.00
2010,04,08,11,39,7.10
2010,04,08,11,40,7.10
2010,04,08,11,41,7.10
2010,04,08,11,42,7.10
2010,04,08,11,43,7.10
2010,04,08,11,44,7.10
2010,04,08,11,45,7.00
2010,04,08,11,46,7.00
2010,04,08,11,47,7.00
2010,04,08,11,48,7.10
2010,04,08,11,49,7.10
2010,04,08,11,50,7.10
2010,04,08,11,51,7.10
2010,04,08,11,52,7.10
2010,04,08,11,53,7.10
2010,04,08,11,54,7.10
2010,04,08,11,55,7.00
2010,04,08,11,56,6.90
2010,04,08,11,57,6.90
2010,04,08,11,58,6.90
2010,04,08,11,59,6.90
2010,04,08,12,00,7.00
2010,04,08,12,01,6.90
2010,04,08,12,02,7.00
2010,04,08,12,03,7.00
2010,04,08,12,04,7.00
2010,04,08,12,05,7.00
2010,04,08,12,06,7.10
2010,04,08,12,07,7.10
2010,04,08,12,08,7.20
2010,04,08,12,09,7.30
2010,04,08,12,10,7.30
2010,04,08,12,11,7.30
2010,04,08,12,12,7.30
2010,04,08,12,13,7.30
2010,04,08,12,14,7.30
2010,04,08,12,15,7.30
2010,04,08,12,16,7.30
2010,04,08,12,17,7.30
2010,04,08,12,18,7.30
2010,04,08,12,19,7.30
2010,04,08,12,20,7.30
2010,04,08,12,21,7.30
2010,04,08,12,22,7.20
2010,04,08,12,23,7.20
2010,04,08,12,24,7.30
2010,04,08,12,25,7.30
2010,04,08,12,26,7.30
2010,04,08,12,27,7.30
2010,04,08,12,28,7.30
2010,04,08,12,29,7.40
2010,04,08,12,30,7.30
2010,04,08,12,31,7.30
2010,04,08,12,32,7.30
2010,04,08,12,33,7.30
2010,04,08,12,34,7.30
2010,04,08,12,35,7.30
2010,04,08,12,36,7.30
2010,04,08,12,37,7.30
2010,04,08,12,38,7.30
2010,04,08,12,39,7.30
2010,04,08,12,40,7.30
2010,04,08,12,41,7.30
2010,04,08,12,42,7.30
2010,04,08,12,43,7.40
2010,04,08,12,44,7.50
2010,04,08,12,45,7.50
2010,04,08,12,46,7.60
2010,04,08,12,47,7.60
2010,04,08,12,48,7.60
2010,04,08,12,49,7.70
2010,04,08,12,50,7.60
2010,04,08,12,51,7.60
2010,04,08,12,52,7.60
2010,04,08,12,53,7.60
2010,04,08,12,54,7.60
2010,04,08,12,55,7.70
2010,04,08,12,56,7.70
2010,04,08,12,57,7.70
2010,04,08,12,58,7.80
2010,04,08,12,59,7.80
2010,04,08,13,00,7.80
2010,04,08,13,01,7.70
2010,04,08,13,02,7.70
2010,04,08,13,03,7.80
2010,04,08,13,04,7.80
2010,04,08,13,05,7.80
2010,04,08,13,06,7.70
2010,04,08,13,07,7.70
2010,04,08,13,08,7.70
2010,04,08,13,09,7.70
2010,04,08,13,10,7.80
2010,04,08,13,11,7.80
2010,04,08,13,12,7.90
2010,04,08,13,13,8.00
2010,04,08,13,14,8.00
2010,04,08,13,15,8.00
2010,04,08,13,16,8.00
2010,04,08,13,17,8.00
2010,04,08,13,18,8.00
2010,04,08,13,19,8.10
2010,04,08,13,20,8.10
2010,04,08,13,21,8.10
2010,04,08,13,22,8.00
2010,04,08,13,23,8.00
2010,04,08,13,24,7.90
2010,04,08,13,25,7.80
2010,04,08,13,26,7.80
2010,04,08,13,27,7.80
2010,04,08,13,28,7.80
2010,04,08,13,29,7.80
2010,04,08,13,30,7.80
2010,04,08,13,31,7.80
2010,04,08,13,32,7.80
2010,04,08,13,33,7.80
2010,04,08,13,34,7.80
2010,04,08,13,35,7.70
2010,04,08,13,36,7.60
2010,04,08,13,37,7.60
2010,04,08,13,38,7.60
2010,04,08,13,39,7.60
2010,04,08,13,40,7.60
2010,04,08,13,41,7.70
2010,04,08,13,42,7.60
2010,04,08,13,43,7.60
2010,04,08,13,44,7.60
2010,04,08,13,45,7.70
2010,04,08,13,46,7.80
2010,04,08,13,47,7.80
2010,04,08,13,48,7.70
2010,04,08,13,49,7.80
2010,04,08,13,50,7.80
2010,04,08,13,51,7.80
2010,04,08,13,52,7.80
2010,04,08,13,53,7.80
2010,04,08,13,54,7.70
2010,04,08,13,55,7.70
2010,04,08,13,56,7.80
2010,04,08,13,57,7.70
2010,04,08,13,58,7.70
2010,04,08,13,59,7.70
2010,04,08,14,00,7.70
2010,04,08,14,01,7.70
2010,04,08,14,02,7.80
2010,04,08,14,03,7.80
2010,04,08,14,04,7.80
2010,04,08,14,05,7.80
2010,04,08,14,06,7.80
2010,04,08,14,07,7.80
2010,04,08,14,08,7.80
2010,04,08,14,09,7.80
2010,04,08,14,10,7.90
2010,04,08,14,11,7.90
2010,04,08,14,12,7.90
2010,04,08,14,13,7.90
2010,04,08,14,14,7.80
2010,04,08,14,15,7.80
2010,04,08,14,16,7.80
2010,04,08,14,17,7.80
2010,04,08,14,18,7.90
2010,04,08,14,19,7.90
2010,04,08,14,20,7.90
2010,04,08,14,21,7.90
2010,04,08,14,22,7.80
2010,04,08,14,23,7.90
2010,04,08,14,24,8.00
2010,04,08,14,25,8.00
2010,04,08,14,26,8.00
2010,04,08,14,27,8.00
2010,04,08,14,28,7.90
2010,04,08,14,29,7.80
2010,04,08,14,30,7.80
2010,04,08,14,31,7.80
2010,04,08,14,32,7.80
2010,04,08,14,33,7.90
2010,04,08,14,34,7.90
2010,04,08,14,35,7.80
2010,04,08,14,36,7.80
2010,04,08,14,37,7.80
2010,04,08,14,38,7.80
2010,04,08,14,39,7.80
2010,04,08,14,40,7.80
2010,04,08,14,41,7.90
2010,04,08,14,42,7.90
2010,04,08,14,43,7.90
2010,04,08,14,44,7.90
2010,04,08,14,45,7.90
2010,04,08,14,46,8.00
2010,04,08,14,47,8.10
2010,04,08,14,48,8.20
2010,04,08,14,49,8.20
2010,04,08,14,50,8.20
2010,04,08,14,51,8.20
2010,04,08,14,52,8.20
2010,04,08,14,53,8.20
2010,04,08,14,54,8.20
2010,04,08,14,55,8.30
2010,04,08,14,56,8.20
2010,04,08,14,57,8.20
2010,04,08,14,58,8.20
2010,04,08,14,59,8.20
2010,04,08,15,00,8.20
2010,04,08,15,01,8.30
2010,04,08,15,02,8.40
2010,04,08,15,03,8.40
2010,04,08,15,04,8.40
2010,04,08,15,05,8.30
2010,04,08,15,06,8.30
2010,04,08,15,07,8.30
2010,04,08,15,08,8.20
2010,04,08,15,09,8.20
2010,04,08,15,10,8.20
2010,04,08,15,11,8.20
2010,04,08,15,12,8.20
2010,04,08,15,13,8.20
2010,04,08,15,14,8.20
2010,04,08,15,15,8.30
2010,04,08,15,16,8.30
2010,04,08,15,17,8.30
2010,04,08,15,18,8.40
2010,04,08,15,19,8.40
2010,04,08,15,20,8.30
2010,04,08,15,21,8.20
2010,04,08,15,22,8.20
2010,04,08,15,23,8.20
2010,04,08,15,24,8.20
2010,04,08,15,25,8.10
2010,04,08,15,26,8.10
2010,04,08,15,27,8.00
2010,04,08,15,28,7.90
2010,04,08,15,29,7.80
2010,04,08,15,30,7.80
2010,04,08,15,31,7.80
2010,04,08,15,32,7.80
2010,04,08,15,33,7.70
2010,04,08,15,34,7.60
2010,04,08,15,35,7.60
2010,04,08,15,36,7.50
2010,04,08,15,37,7.50
2010,04,08,15,38,7.40
2010,04,08,15,39,7.30
2010,04,08,15,40,7.30
2010,04,08,15,41,7.30
2010,04,08,15,42,7.30
2010,04,08,15,43,7.30
2010,04,08,15,44,7.30
2010,04,08,15,45,7.40
2010,04,08,15,46,7.40
2010,04,08,15,47,7.40
2010,04,08,15,48,7.50
2010,04,08,15,49,7.60
2010,04,08,15,50,7.60
2010,04,08,15,51,7.70
2010,04,08,15,52,7.70
2010,04,08,15,53,7.60
2010,04,08,15,54,7.60
2010,04,08,15,55,7.60
2010,04,08,15,56,7.60
2010,04,08,15,57,7.60
2010,04,08,15,58,7.50
2010,04,08,15,59,7.40
2010,04,08,16,00,7.30
2010,04,08,16,01,7.30
2010,04,08,16,02,7.30
2010,04,08,16,03,7.30
2010,04,08,16,04,7.30
2010,04,08,16,05,7.30
2010,04,08,16,06,7.30
2010,04,08,16,07,7.30
2010,04,08,16,08,7.30
2010,04,08,16,09,7.40
2010,04,08,16,10,7.50
2010,04,08,16,11,7.60
2010,04,08,16,12,7.60
2010,04,08,16,13,7.60
2010,04,08,16,14,7.60
2010,04,08,16,15,7.60
2010,04,08,16,16,7.60
2010,04,08,16,17,7.60
2010,04,08,16,18,7.60
2010,04,08,16,19,7.50
2010,04,08,16,20,7.50
2010,04,08,16,21,7.40
2010,04,08,16,22,7.40
2010,04,08,16,23,7.40
2010,04,08,16,24,7.40
2010,04,08,16,25,7.40
2010,04,08,16,26,7.40
2010,04,08,16,27,7.30
2010,04,08,16,28,7.20
2010,04,08,16,29,7.20
2010,04,08,16,30,7.20
2010,04,08,16,31,7.20
2010,04,08,16,32,7.20
2010,04,08,16,33,7.10
2010,04,08,16,34,7.10
2010,04,08,16,35,7.00
2010,04,08,16,36,7.00
2010,04,08,16,37,6.90
2010,04,08,16,38,7.00
2010,04,08,16,39,7.00
2010,04,08,16,40,6.90
2010,04,08,16,41,6.80
2010,04,08,16,42,6.80
2010,04,08,16,43,6.70
2010,04,08,16,44,6.60
2010,04,08,16,45,6.40
2010,04,08,16,46,6.40
2010,04,08,16,47,6.30
2010,04,08,16,48,6.30
2010,04,08,16,49,6.20
2010,04,08,16,50,6.20
2010,04,08,16,51,6.30
2010,04,08,16,52,6.40
2010,04,08,16,53,6.50
2010,04,08,16,54,6.60
2010,04,08,16,55,6.50
2010,04,08,16,56,6.40
2010,04,08,16,57,6.40
2010,04,08,16,58,6.30
2010,04,08,16,59,6.30
2010,04,08,17,00,6.20
2010,04,08,17,01,6.30
2010,04,08,17,02,6.30
2010,04,08,17,03,6.30
2010,04,08,17,04,6.30
2010,04,08,17,05,6.30
2010,04,08,17,06,6.30
2010,04,08,17,07,6.40
2010,04,08,17,08,6.50
2010,04,08,17,09,6.60
2010,04,08,17,10,6.60
2010,04,08,17,11,6.60
2010,04,08,17,12,6.60
2010,04,08,17,13,6.60
2010,04,08,17,14,6.60
2010,04,08,17,15,6.60
2010,04,08,17,16,6.60
2010,04,08,17,17,6.60
2010,04,08,17,18,6.60
2010,04,08,17,19,6.60
2010,04,08,17,20,6.60
2010,04,08,17,21,6.60
2010,04,08,17,22,6.60
2010,04,08,17,23,6.60
2010,04,08,17,24,6.60
2010,04,08,17,25,6.60
2010,04,08,17,26,6.60
2010,04,08,17,27,6.70
2010,04,08,17,28,6.70
2010,04,08,17,29,6.70
2010,04,08,17,30,6.80
2010,04,08,17,31,6.80
2010,04,08,17,32,6.80
2010,04,08,17,33,6.80
2010,04,08,17,34,6.80
2010,04,08,17,35,6.70
2010,04,08,17,36,6.60
2010,04,08,17,37,6.60
2010,04,08,17,38,6.60
2010,04,08,17,39,6.60
2010,04,08,17,40,6.60
2010,04,08,17,41,6.60
2010,04,08,17,42,6.60
2010,04,08,17,43,6.60
2010,04,08,17,44,6.60
2010,04,08,17,45,6.70
2010,04,08,17,46,6.70
2010,04,08,17,47,6.70
2010,04,08,17,48,6.70
2010,04,08,17,49,6.70
2010,04,08,17,50,6.70
2010,04,08,17,51,6.70
2010,04,08,17,52,6.70
2010,04,08,17,53,6.70
2010,04,08,17,54,6.70
2010,04,08,17,55,6.70
2010,04,08,17,56,6.70
2010,04,08,17,57,6.60
2010,04,08,17,58,6.70
2010,04,08,17,59,6.70
2010,04,08,18,00,6.70
2010,04,08,18,01,6.70
2010,04,08,18,02,6.70
2010,04,08,18,03,6.70
2010,04,08,18,04,6.70
2010,04,08,18,05,6.70
2010,04,08,18,06,6.70